Location: Lango�lan
(48.1202°N, 3.2340°W)
Time: 20:12:06
(UTC+00:00)

Meteor 1-4 Rocket - Pass Details

Date: 23 October 2019
Orbit: 450 x 503 km, 81.2° (Epoch: 18 November)

Event Time Altitude Azimuth Distance (km) Brightness Sun altitude
Exits shadow 05:24:48 20° 308° (NW) 1,109 3.9 -13.8°
Drops below altitude 10° 05:26:52 10° 343° (NNW) 1,595 5.0 -13.5°
Sets 05:29:18 0° 360° (N) 2,472 6.1 -13.1°
